Time,TemperatureF,DewpointF,PressureIn,WindDirection,WindDirectionDegrees,WindSpeedMPH,WindSpeedGustMPH,Humidity,HourlyPrecipIn,Conditions,Clouds,dailyrainin,SolarRadiationWatts/m^2,SoftwareType,DateUTC
2013-03-24 00:03:00,48.0,43.0,-100.00,WSW,244,0.0,7.0,82,0.00,,,0.05,0.000000,,2013-03-24 04:03:00,
2013-03-24 00:33:00,48.0,43.0,-100.00,South,173,0.0,9.0,84,0.01,,,0.06,0.000000,,2013-03-24 04:33:00,
2013-03-24 00:43:00,48.0,43.0,-100.00,South,173,0.0,9.0,84,0.01,,,0.06,0.000000,,2013-03-24 04:43:00,
2013-03-24 00:53:00,48.0,43.0,-100.00,South,173,0.0,9.0,84,0.01,,,0.06,0.000000,,2013-03-24 04:53:00,
2013-03-24 01:03:00,48.0,43.0,-100.00,South,173,0.0,9.0,84,0.01,,,0.06,0.000000,,2013-03-24 05:03:00,
2013-03-24 01:33:00,47.0,46.0,-100.00,South,188,0.0,9.0,95,0.17,,,0.23,0.000000,,2013-03-24 05:33:00,
2013-03-24 01:43:00,47.0,46.0,-100.00,South,188,0.0,9.0,95,0.17,,,0.23,0.000000,,2013-03-24 05:43:00,
2013-03-24 01:52:00,47.0,46.0,-100.00,South,188,0.0,9.0,95,0.17,,,0.23,0.000000,,2013-03-24 05:52:00,
2013-03-24 02:02:00,47.0,46.0,-100.00,South,188,0.0,9.0,95,0.17,,,0.23,0.000000,,2013-03-24 06:02:00,
2013-03-24 02:32:00,47.0,46.0,-100.00,East,100,0.0,4.0,95,0.06,,,0.29,0.000000,,2013-03-24 06:32:00,
2013-03-24 02:42:00,47.0,46.0,-100.00,East,100,0.0,4.0,95,0.06,,,0.29,0.000000,,2013-03-24 06:42:00,
2013-03-24 02:52:00,47.0,46.0,-100.00,East,100,0.0,4.0,95,0.06,,,0.29,0.000000,,2013-03-24 06:52:00,
2013-03-24 03:02:00,47.0,46.0,-100.00,East,100,0.0,4.0,95,0.06,,,0.29,0.000000,,2013-03-24 07:02:00,
2013-03-24 03:32:00,47.0,46.0,-100.00,NE,43,1.0,6.0,96,0.05,,,0.32,0.000000,,2013-03-24 07:32:00,
2013-03-24 03:42:00,47.0,46.0,-100.00,NE,43,1.0,6.0,96,0.05,,,0.32,0.000000,,2013-03-24 07:42:00,
2013-03-24 03:52:00,47.0,46.0,-100.00,NE,43,1.0,6.0,96,0.05,,,0.32,0.000000,,2013-03-24 07:52:00,
2013-03-24 04:03:00,47.0,46.0,-100.00,NE,43,1.0,6.0,96,0.05,,,0.32,0.000000,,2013-03-24 08:03:00,
2013-03-24 04:32:00,46.0,45.0,-100.00,North,4,0.0,0.0,96,0.08,,,0.40,0.000000,,2013-03-24 08:32:00,
2013-03-24 04:42:00,46.0,45.0,-100.00,North,4,0.0,0.0,96,0.08,,,0.40,0.000000,,2013-03-24 08:42:00,
2013-03-24 04:52:00,46.0,45.0,-100.00,North,4,0.0,0.0,96,0.08,,,0.40,0.000000,,2013-03-24 08:52:00,
2013-03-24 05:02:00,46.0,45.0,-100.00,North,4,0.0,0.0,96,0.08,,,0.40,0.000000,,2013-03-24 09:02:00,
2013-03-24 05:33:00,47.0,46.0,-100.00,NE,36,3.0,8.0,96,0.16,,,0.55,0.000000,,2013-03-24 09:33:00,
2013-03-24 05:43:00,47.0,46.0,-100.00,NE,36,3.0,8.0,96,0.16,,,0.55,0.000000,,2013-03-24 09:43:00,
2013-03-24 05:53:00,47.0,46.0,-100.00,NE,36,3.0,8.0,96,0.16,,,0.55,0.000000,,2013-03-24 09:53:00,
2013-03-24 06:03:00,47.0,46.0,-100.00,NE,36,3.0,8.0,96,0.16,,,0.55,0.000000,,2013-03-24 10:03:00,
2013-03-24 06:33:00,46.0,45.0,-100.00,NNE,14,4.0,7.0,96,0.19,,,0.72,0.000000,,2013-03-24 10:33:00,
2013-03-24 06:42:00,46.0,45.0,-100.00,NNE,14,4.0,7.0,96,0.19,,,0.72,0.000000,,2013-03-24 10:42:00,
2013-03-24 06:53:00,46.0,45.0,-100.00,NNE,14,4.0,7.0,96,0.19,,,0.72,0.000000,,2013-03-24 10:53:00,
2013-03-24 07:03:00,46.0,45.0,-100.00,NNE,14,4.0,7.0,96,0.19,,,0.72,0.000000,,2013-03-24 11:03:00,
2013-03-24 07:33:00,46.0,45.0,-100.00,NNE,28,5.0,10.0,96,0.15,,,0.87,0.000000,,2013-03-24 11:33:00,
2013-03-24 07:42:00,46.0,45.0,-100.00,NNE,28,5.0,10.0,96,0.15,,,0.87,0.000000,,2013-03-24 11:42:00,
2013-03-24 07:52:00,46.0,45.0,-100.00,NNE,28,5.0,10.0,96,0.15,,,0.87,0.000000,,2013-03-24 11:52:00,
2013-03-24 08:03:00,46.0,45.0,-100.00,NNE,28,5.0,10.0,96,0.15,,,0.87,0.000000,,2013-03-24 12:03:00,
2013-03-24 08:32:00,46.0,45.0,-100.00,NNE,21,3.0,10.0,95,0.02,,,0.89,2.000000,,2013-03-24 12:32:00,
2013-03-24 08:42:00,46.0,45.0,-100.00,NNE,21,3.0,10.0,95,0.02,,,0.89,2.000000,,2013-03-24 12:42:00,
2013-03-24 08:52:00,46.0,45.0,-100.00,NNE,21,3.0,10.0,95,0.02,,,0.89,2.000000,,2013-03-24 12:52:00,
2013-03-24 09:02:00,46.0,45.0,-100.00,NNE,21,3.0,10.0,95,0.02,,,0.89,2.000000,,2013-03-24 13:02:00,
2013-03-24 09:33:00,46.0,44.0,-100.00,NNE,24,0.0,6.0,94,0.01,,,0.90,28.000000,,2013-03-24 13:33:00,
2013-03-24 09:43:00,46.0,44.0,-100.00,NNE,24,0.0,6.0,94,0.01,,,0.90,28.000000,,2013-03-24 13:43:00,
2013-03-24 09:52:00,46.0,44.0,-100.00,NNE,24,0.0,6.0,94,0.01,,,0.90,28.000000,,2013-03-24 13:52:00,
2013-03-24 10:02:00,46.0,44.0,-100.00,NNE,24,0.0,6.0,94,0.01,,,0.90,28.000000,,2013-03-24 14:02:00,
2013-03-24 10:33:00,47.0,45.0,-100.00,NW,324,1.0,6.0,93,0.00,,,0.90,65.000000,,2013-03-24 14:33:00,
2013-03-24 10:43:00,47.0,45.0,-100.00,NW,324,1.0,6.0,93,0.00,,,0.90,65.000000,,2013-03-24 14:43:00,
2013-03-24 10:53:00,47.0,45.0,-100.00,NW,324,1.0,6.0,93,0.00,,,0.90,65.000000,,2013-03-24 14:53:00,
2013-03-24 11:02:00,47.0,45.0,-100.00,NW,324,1.0,6.0,93,0.00,,,0.90,65.000000,,2013-03-24 15:02:00,
2013-03-24 11:33:00,48.0,46.0,-100.00,NE,34,0.0,4.0,93,0.07,,,0.97,66.000000,,2013-03-24 15:33:00,
2013-03-24 11:43:00,48.0,46.0,-100.00,NE,34,0.0,4.0,93,0.07,,,0.97,66.000000,,2013-03-24 15:43:00,
2013-03-24 11:53:00,48.0,46.0,-100.00,NE,34,0.0,4.0,93,0.07,,,0.97,66.000000,,2013-03-24 15:53:00,
2013-03-24 12:03:00,48.0,46.0,-100.00,NE,34,0.0,4.0,93,0.07,,,0.97,66.000000,,2013-03-24 16:03:00,
2013-03-24 12:33:00,50.0,47.0,-100.00,North,10,0.0,0.0,90,0.00,,,0.97,125.000000,,2013-03-24 16:33:00,
2013-03-24 12:43:00,50.0,47.0,-100.00,North,10,0.0,0.0,90,0.00,,,0.97,125.000000,,2013-03-24 16:43:00,
2013-03-24 12:53:00,50.0,47.0,-100.00,North,10,0.0,0.0,90,0.00,,,0.97,125.000000,,2013-03-24 16:53:00,
2013-03-24 13:03:00,50.0,47.0,-100.00,North,10,0.0,0.0,90,0.00,,,0.97,125.000000,,2013-03-24 17:03:00,
2013-03-24 13:33:00,52.0,49.0,-100.00,ENE,64,0.0,4.0,89,0.00,,,0.97,176.000000,,2013-03-24 17:33:00,
2013-03-24 13:43:00,52.0,49.0,-100.00,ENE,64,0.0,4.0,89,0.00,,,0.97,176.000000,,2013-03-24 17:43:00,
2013-03-24 13:53:00,52.0,49.0,-100.00,ENE,64,0.0,4.0,89,0.00,,,0.97,176.000000,,2013-03-24 17:53:00,
2013-03-24 14:03:00,52.0,49.0,-100.00,ENE,64,0.0,4.0,89,0.00,,,0.97,176.000000,,2013-03-24 18:03:00,
2013-03-24 14:33:00,56.0,52.0,-100.00,SW,221,6.0,10.0,86,0.01,,,0.98,375.000000,,2013-03-24 18:33:00,
2013-03-24 14:43:00,56.0,52.0,-100.00,SW,221,6.0,10.0,86,0.01,,,0.98,375.000000,,2013-03-24 18:43:00,
2013-03-24 14:52:00,56.0,52.0,-100.00,SW,221,6.0,10.0,86,0.01,,,0.98,375.000000,,2013-03-24 18:52:00,
2013-03-24 15:03:00,56.0,52.0,-100.00,SW,221,6.0,10.0,86,0.01,,,0.98,375.000000,,2013-03-24 19:03:00,
2013-03-24 15:32:00,60.0,53.0,-100.00,SW,217,9.0,20.0,78,0.00,,,0.98,468.000000,,2013-03-24 19:32:00,
2013-03-24 15:43:00,60.0,53.0,-100.00,SW,217,9.0,20.0,78,0.00,,,0.98,468.000000,,2013-03-24 19:43:00,
2013-03-24 15:53:00,60.0,53.0,-100.00,SW,217,9.0,20.0,78,0.00,,,0.98,468.000000,,2013-03-24 19:53:00,
2013-03-24 16:03:00,60.0,53.0,-100.00,SW,217,9.0,20.0,78,0.00,,,0.98,468.000000,,2013-03-24 20:03:00,
2013-03-24 16:33:00,62.0,50.0,-100.00,SSW,213,19.0,29.0,64,0.00,,,0.98,548.000000,,2013-03-24 20:33:00,
2013-03-24 16:43:00,62.0,50.0,-100.00,SSW,213,19.0,29.0,64,0.00,,,0.98,548.000000,,2013-03-24 20:43:00,
2013-03-24 16:53:00,62.0,50.0,-100.00,SSW,213,19.0,29.0,64,0.00,,,0.98,548.000000,,2013-03-24 20:53:00,
2013-03-24 17:03:00,62.0,50.0,-100.00,SSW,213,19.0,29.0,64,0.00,,,0.98,548.000000,,2013-03-24 21:03:00,
2013-03-24 17:33:00,56.0,47.0,-100.00,SSW,196,16.0,26.0,73,0.00,,,0.98,173.000000,,2013-03-24 21:33:00,
2013-03-24 17:43:00,56.0,47.0,-100.00,SSW,196,16.0,26.0,73,0.00,,,0.98,173.000000,,2013-03-24 21:43:00,
2013-03-24 17:53:00,56.0,47.0,-100.00,SSW,196,16.0,26.0,73,0.00,,,0.98,173.000000,,2013-03-24 21:53:00,
2013-03-24 18:03:00,56.0,47.0,-100.00,SSW,196,16.0,26.0,73,0.00,,,0.98,173.000000,,2013-03-24 22:03:00,
2013-03-24 18:33:00,54.0,49.0,-100.00,SSW,200,12.0,23.0,83,0.01,,,0.99,43.000000,,2013-03-24 22:33:00,
2013-03-24 18:43:00,54.0,49.0,-100.00,SSW,200,12.0,23.0,83,0.01,,,0.99,43.000000,,2013-03-24 22:43:00,
2013-03-24 18:53:00,54.0,49.0,-100.00,SSW,200,12.0,23.0,83,0.01,,,0.99,43.000000,,2013-03-24 22:53:00,
2013-03-24 19:03:00,54.0,49.0,-100.00,SSW,200,12.0,23.0,83,0.01,,,0.99,43.000000,,2013-03-24 23:03:00,
2013-03-24 19:32:00,53.0,46.0,-100.00,WSW,238,11.0,22.0,76,0.03,,,1.02,21.000000,,2013-03-24 23:32:00,
2013-03-24 19:43:00,53.0,46.0,-100.00,WSW,238,11.0,22.0,76,0.03,,,1.02,21.000000,,2013-03-24 23:43:00,
2013-03-24 19:53:00,53.0,46.0,-100.00,WSW,238,11.0,22.0,76,0.03,,,1.02,21.000000,,2013-03-24 23:53:00,
2013-03-24 20:02:00,53.0,46.0,-100.00,WSW,238,11.0,22.0,76,0.03,,,1.02,21.000000,,2013-03-25 00:02:00,
2013-03-24 20:33:00,50.0,38.0,-100.00,SW,226,5.0,23.0,64,0.00,,,1.02,37.000000,,2013-03-25 00:33:00,
2013-03-24 20:43:00,50.0,38.0,-100.00,SW,226,5.0,23.0,64,0.00,,,1.02,37.000000,,2013-03-25 00:43:00,
2013-03-24 20:53:00,50.0,38.0,-100.00,SW,226,5.0,23.0,64,0.00,,,1.02,37.000000,,2013-03-25 00:53:00,
2013-03-24 21:02:00,50.0,38.0,-100.00,SW,226,5.0,23.0,64,0.00,,,1.02,37.000000,,2013-03-25 01:02:00,
2013-03-24 21:32:00,50.0,39.0,-100.00,West,267,7.0,18.0,65,0.00,,,1.02,0.000000,,2013-03-25 01:32:00,
2013-03-24 21:42:00,50.0,39.0,-100.00,West,267,7.0,18.0,65,0.00,,,1.02,0.000000,,2013-03-25 01:42:00,
2013-03-24 21:53:00,50.0,39.0,-100.00,West,267,7.0,18.0,65,0.00,,,1.02,0.000000,,2013-03-25 01:53:00,
2013-03-24 22:02:00,50.0,39.0,-100.00,West,267,7.0,18.0,65,0.00,,,1.02,0.000000,,2013-03-25 02:02:00,
2013-03-24 22:33:00,45.0,31.0,-100.00,WSW,257,11.0,27.0,58,0.00,,,1.02,0.000000,,2013-03-25 02:33:00,
2013-03-24 22:43:00,45.0,31.0,-100.00,WSW,257,11.0,27.0,58,0.00,,,1.02,0.000000,,2013-03-25 02:43:00,
2013-03-24 22:52:00,45.0,31.0,-100.00,WSW,257,11.0,27.0,58,0.00,,,1.02,0.000000,,2013-03-25 02:52:00,
2013-03-24 23:03:00,45.0,31.0,-100.00,WSW,257,11.0,27.0,58,0.00,,,1.02,0.000000,,2013-03-25 03:03:00,
2013-03-24 23:34:00,44.0,29.0,-100.00,WSW,250,9.0,22.0,56,0.00,,,1.02,0.000000,,2013-03-25 03:34:00,
2013-03-24 23:43:00,44.0,29.0,-100.00,WSW,250,9.0,22.0,56,0.00,,,1.02,0.000000,,2013-03-25 03:43:00,
2013-03-24 23:53:00,44.0,29.0,-100.00,WSW,250,9.0,22.0,56,0.00,,,1.02,0.000000,,2013-03-25 03:53:00,